[[{"header":{"parameterUnit":"m.s-1","parameterCategory":1,"la1":30.2991,"la2":30.254,"lo1":-89.0895,"lo2":-89.0444,"dy":0.0017,"dx":0.0017,"nx":28,"ny":28,"refTime":"2025-06-07T03:00:00:Z","depth":0,"parameterNumber":2,"parameterNumberName":"U-component_of_WINDS"},"data":[0,0,0,0,0,0,0,0,0,0,0,0,0,0,0,0,0,0,0,0,0,0,0,0,0,0,0,0,0,0,0,0,0,0,0,0,0,0,0,0,0,0,0,0,0,0,0,0,0,0,0,0,0,0,0,0,0,0,2.227,2.227,0,2.2257,2.2256,2.2256,2.2144,2.2141,2.2138,2.2136,2.213,2.2133,2.2135,0,0,0,0,0,0,0,0,0,0,0,0,0,2.2208,2.221,2.227,2.227,2.227,2.2257,2.2256,2.2256,2.2145,2.2141,2.2138,2.2135,2.2129,2.2132,2.2135,0,0,0,0,0,0,0,0,0,0,0,0,0,2.2219,2.221,2.227,2.2212,2.2207,2.2257,2.2256,2.2256,2.2145,2.2141,2.2137,2.2133,2.2128,2.2132,2.2136,2.2242,0,0,2.2147,2.2148,0,0,0,0,0,0,0,0,2.2219,2.2221,2.2221,2.2216,2.221,2.2197,2.2232,2.2252,2.2146,2.2169,2.2136,2.2131,2.2157,2.2158,2.2165,2.2242,2.2242,2.2147,2.2149,2.2151,2.2152,0,0,0,0,0,0,0,2.2218,2.2221,2.2265,2.2221,2.2215,2.219,2.2187,2.2235,2.2187,2.2167,2.2158,2.2158,2.2153,2.2161,2.2164,2.2242,2.2147,2.215,2.2153,2.2154,2.2408,2.2413,0,0,0,0,0,0,2.2224,2.2221,2.2265,2.2264,2.2204,2.2194,2.2191,2.2206,2.2186,2.2178,2.2162,2.2153,2.2157,2.2159,2.2163,2.2287,2.2151,2.2154,2.2157,2.2404,2.2409,2.2414,0,0,0,0,0,0,2.2223,2.2229,2.2266,2.2241,2.2243,2.22,2.2218,2.2208,2.2216,2.2182,2.2173,2.2178,2.2154,2.2158,2.2223,2.2285,2.2156,2.2159,2.2399,2.2406,2.2412,2.2536,0,0,0,0,0,0,2.2222,2.2229,2.2267,2.2242,2.2245,2.2324,2.2222,2.2211,2.2222,2.221,2.2195,2.2189,2.2151,2.2218,2.2227,2.2288,2.2162,2.2393,2.2402,2.241,2.2527,2.2547,2.2564,0,0,0,0,0,2.222,2.2304,2.227,2.2276,2.2291,2.2328,2.233,2.2281,2.2227,2.2266,2.2245,2.219,2.2277,2.2226,2.2235,2.2298,2.2389,2.2399,2.2409,2.2518,2.2543,2.2563,0,0,0,0,0,0,2.234,2.23,2.2261,2.2339,2.2337,2.2309,2.2356,2.2309,2.2325,2.2313,2.2256,2.2254,2.2328,2.232,2.2263,2.2401,2.2324,2.2336,2.2404,2.2427,2.2445,2.2446,2.2165,0,0,0,0,0,2.2375,2.2405,2.237,2.2442,2.2443,2.2401,2.2415,2.2378,2.2375,2.2374,2.2357,2.2359,2.2386,2.2406,2.243,2.2525,2.2522,2.2573,2.2592,2.2607,2.2619,2.267,2.2693,2.2448,2.2448,2.2448,0,0,2.2448,2.243,2.2453,2.2466,2.246,2.2496,2.2401,2.2442,2.2468,2.2381,2.2441,2.2429,2.2428,2.2509,2.2544,2.2504,2.2686,2.2621,2.2633,2.2636,2.2683,2.2707,2.2727,2.2455,2.2454,2.2452,0,0,2.26,2.2589,2.2648,2.2645,2.2636,2.2608,2.2622,2.2601,2.2589,2.2648,2.2584,2.2616,2.2665,2.2667,2.2674,2.2829,2.278,2.2839,2.2936,2.2987,2.3006,2.3023,2.308,2.31,2.2851,2.2851,2.2851,0,2.2693,2.2741,2.2686,2.2731,2.274,2.266,2.2722,2.2722,2.2724,2.2733,2.2688,2.2748,2.2741,2.2822,2.286,2.2869,2.2886,2.284,2.3008,2.3024,2.3039,2.3092,2.3113,2.2858,2.2857,2.2857,2.2856,0,2.2856,2.2891,2.294,2.2941,2.2956,2.3009,2.2965,2.2987,2.295,2.2927,2.299,2.2979,2.2999,2.3016,2.2981,2.3093,2.3069,2.3017,2.2938,2.307,2.3119,2.3139,2.2869,2.2866,2.2864,2.2862,0,0,2.3081,2.3052,2.3071,2.3071,2.3057,2.3084,2.3136,2.3154,2.3174,2.3179,2.3222,2.3266,2.3218,2.3227,2.3192,2.3236,2.3361,2.3179,2.3178,2.3214,2.3486,2.3525,2.3549,2.3329,2.3332,2.3335,2.3486,0,2.3227,2.331,2.3263,2.3354,2.3386,2.3313,2.3358,2.3357,2.3338,2.3365,2.3345,2.3377,2.331,2.3315,2.3356,2.3337,2.3415,2.3326,2.3371,2.3373,2.3373,2.3575,2.3616,2.3759,2.3505,2.3508,2.351,0,2.3408,2.3418,2.3511,2.3493,2.3505,2.3546,2.3559,2.3586,2.3584,2.3567,2.3577,2.3532,2.3584,2.3507,2.3579,2.352,2.3536,2.353,2.3534,2.3536,2.345,2.3583,2.3803,2.3825,2.354,2.3538,2.3535,0,2.3563,2.3601,2.3661,2.3664,2.3644,2.3675,2.3668,2.3662,2.3676,2.369,2.3699,2.372,2.3731,2.3749,2.3712,2.3658,2.3791,2.3709,2.378,2.3782,2.3811,2.381,2.4037,2.3822,2.3821,2.3821,2.3821,0,2.3731,2.3791,2.3731,2.3769,2.3835,2.3783,2.3851,2.3837,2.3832,2.3868,2.3808,2.3843,2.3792,2.3824,2.3795,2.3861,2.3867,2.3856,2.3848,2.3862,2.3863,2.3871,2.386,2.3827,2.3825,2.3824,2.3823,0,2.3915,2.3877,2.3938,2.3914,2.391,2.396,2.3941,2.3976,2.3953,2.4,2.4008,2.3973,2.4007,2.3972,2.4005,2.3986,2.4074,2.4051,2.4074,2.4067,2.4141,2.4135,2.4381,2.4412,2.4177,2.4179,2.4181,0,2.4024,2.4068,2.4049,2.4067,2.4064,2.4095,2.4109,2.406,2.4078,2.408,2.4117,2.4145,2.4165,2.4224,2.4203,2.4229,2.4207,2.4291,2.421,2.4223,2.4209,2.4206,2.4211,2.4308,2.4311,2.4313,2.4315,0,2.4222,2.4201,2.4222,2.4238,2.4256,2.4267,2.4273,2.4293,2.4243,2.4267,2.4299,2.4315,2.4348,2.4378,2.4397,2.4394,2.4348,2.4341,2.4359,2.4373,2.4384,2.438,2.4119,2.4335,2.4333,2.4332,2.4331,2.433,2.4372,2.4408,2.44,2.4427,2.4427,2.4434,2.4467,2.4448,2.4473,2.4494,2.4465,2.4507,2.4507,2.4527,2.453,2.4564,2.4528,2.4554,2.4561,2.4568,2.4579,2.4379,2.4567,2.4567,2.4566,2.4566,2.4565,0,2.4567,2.4558,2.4583,2.4593,2.4615,2.4567,2.4573,2.4595,2.4631,2.4634,2.4655,2.4695,2.4724,2.4706,2.4732,2.4763,2.4743,2.4772,2.4769,2.477,2.4609,2.4591,2.4788,2.4788,2.4788,2.4788,2.4788,2.4788,2.4671,2.473,2.471,2.477,2.4762,2.48,2.4808,2.4816,2.4817,2.4863,2.4887,2.4874,2.487,2.4895,2.4921,2.4915,2.4928,2.4965,2.4952,2.4803,2.4781,2.476,2.4742,2.4968,2.4969,2.511,2.5111,2.5112]},{"header":{"parameterUnit":"m.s-1","parameterCategory":1,"la1":30.2991,"la2":30.254,"lo1":-89.0895,"lo2":-89.0444,"dy":0.0017,"dx":0.0017,"nx":28,"ny":28,"refTime":"2025-06-07T03:00:00:Z","depth":0,"parameterNumber":3,"parameterNumberName":"V-component_of_WINDS"},"data":[0,0,0,0,0,0,0,0,0,0,0,0,0,0,0,0,0,0,0,0,0,0,0,0,0,0,0,0,0,0,0,0,0,0,0,0,0,0,0,0,0,0,0,0,0,0,0,0,0,0,0,0,0,0,0,0,0,0,4.6636,4.6638,0,4.6754,4.6755,4.6756,4.6749,4.6747,4.6746,4.6744,4.6856,4.686,4.6865,0,0,0,0,0,0,0,0,0,0,0,0,0,4.6399,4.6404,4.6636,4.6638,4.6639,4.6754,4.6755,4.6757,4.6749,4.6747,4.6745,4.6743,4.6854,4.686,4.6865,0,0,0,0,0,0,0,0,0,0,0,0,0,4.6508,4.6405,4.6636,4.665,4.6652,4.6753,4.6755,4.6757,4.675,4.6747,4.6745,4.6742,4.6853,4.6859,4.6866,4.6959,0,0,4.6887,4.689,0,0,0,0,0,0,0,0,4.6502,4.6516,4.6646,4.6649,4.6652,4.6734,4.6713,4.6825,4.6751,4.6712,4.6744,4.6741,4.6817,4.6827,4.6854,4.6964,4.6969,4.6888,4.6892,4.6895,4.6897,0,0,0,0,0,0,0,4.6494,4.6511,4.6682,4.6648,4.6651,4.6648,4.666,4.6734,4.6777,4.6716,4.6715,4.673,4.6818,4.6847,4.6856,4.6971,4.6887,4.6893,4.6898,4.69,4.7165,4.7168,0,0,0,0,0,0,4.6485,4.6505,4.6679,4.6686,4.6569,4.6654,4.6668,4.671,4.6776,4.6784,4.6732,4.6729,4.6837,4.6849,4.686,4.6975,4.6895,4.6901,4.6905,4.7162,4.7166,4.7169,0,0,0,0,0,0,4.6479,4.65,4.6674,4.6596,4.6618,4.6661,4.6708,4.6714,4.6743,4.6789,4.6796,4.6754,4.6835,4.6851,4.6936,4.6979,4.6904,4.691,4.7159,4.7163,4.7167,4.7205,0,0,0,0,0,0,4.6473,4.6498,4.6535,4.6597,4.6622,4.6749,4.6711,4.6718,4.6756,4.6754,4.6812,4.6819,4.6835,4.6926,4.6942,4.6987,4.6916,4.7155,4.7161,4.7166,4.72,4.721,4.7218,0,0,0,0,0,4.6464,4.6539,4.6537,4.6558,4.6669,4.6752,4.6766,4.6785,4.676,4.6797,4.6826,4.6817,4.6972,4.6934,4.6953,4.7,4.7152,4.7159,4.7165,4.7196,4.7208,4.7218,0,0,0,0,0,0,4.6478,4.6547,4.6546,4.6643,4.6692,4.675,4.6797,4.6797,4.6852,4.6846,4.6865,4.6878,4.6964,4.699,4.6948,4.7095,4.7058,4.7069,4.7075,4.7087,4.7096,4.7088,4.6921,0,0,0,0,0,4.6493,4.6556,4.6612,4.6692,4.6717,4.6754,4.679,4.6801,4.6851,4.6871,4.6906,4.6953,4.7013,4.7051,4.7108,4.7204,4.7216,4.7245,4.7255,4.7262,4.7271,4.7326,4.734,4.719,4.719,4.719,0,0,4.6522,4.6568,4.6607,4.6696,4.6735,4.68,4.6771,4.6838,4.6886,4.688,4.6964,4.6992,4.7045,4.7137,4.7178,4.7161,4.7316,4.7271,4.7276,4.7281,4.7334,4.7348,4.7361,4.7195,4.7194,4.7193,0,0,4.6611,4.6652,4.6724,4.6765,4.6827,4.6851,4.6868,4.6928,4.6947,4.7032,4.703,4.7085,4.7186,4.7226,4.7259,4.7365,4.7359,4.7382,4.7431,4.7484,4.7496,4.7506,4.7546,4.7559,4.7391,4.7391,4.7391,0,4.6639,4.6738,4.6761,4.6831,4.6871,4.6872,4.6945,4.6983,4.7058,4.7085,4.7065,4.7195,4.723,4.7332,4.7359,4.7385,4.7405,4.7376,4.7493,4.7504,4.7514,4.7551,4.7566,4.7394,4.7394,4.7393,4.7393,0,4.6772,4.684,4.6891,4.6969,4.7014,4.7084,4.7116,4.7159,4.7166,4.7192,4.7279,4.7323,4.739,4.7414,4.742,4.7518,4.7506,4.7489,4.7453,4.753,4.7566,4.758,4.7398,4.7397,4.7396,4.7395,0,0,4.6869,4.6962,4.698,4.7016,4.7085,4.7138,4.7208,4.7278,4.7315,4.7366,4.7426,4.7514,4.7501,4.7538,4.7549,4.7595,4.7679,4.7573,4.7575,4.7592,4.779,4.7803,4.7819,4.7675,4.7678,4.768,4.7786,0,4.6966,4.7096,4.7119,4.7231,4.7296,4.7299,4.7361,4.7409,4.7436,4.7492,4.752,4.7583,4.7559,4.7582,4.7628,4.7659,4.7719,4.7651,4.773,4.7733,4.7718,4.7837,4.7851,4.7948,4.78,4.7802,4.7804,0,4.7095,4.7155,4.7275,4.7339,4.7367,4.7422,4.7489,4.7543,4.7598,4.7614,4.7658,4.7664,4.7737,4.7698,4.7798,4.7752,4.7785,4.7805,4.781,4.7818,4.7773,4.785,4.798,4.7995,4.7826,4.7824,4.7822,0,4.7156,4.7267,4.7354,4.7385,4.746,4.75,4.7532,4.7585,4.7626,4.7683,4.771,4.7773,4.7808,4.7856,4.7879,4.7848,4.7979,4.7941,4.7993,4.7993,4.8021,4.8019,4.8159,4.8041,4.8041,4.804,4.804,0,4.7261,4.7335,4.7383,4.7437,4.752,4.7545,4.7625,4.7657,4.7704,4.7763,4.7768,4.7823,4.7849,4.7907,4.7925,4.8006,4.8021,4.8036,4.804,4.8036,4.8034,4.8058,4.8053,4.8044,4.8043,4.8043,4.8042,0,4.7344,4.7379,4.7475,4.754,4.7558,4.7617,4.7671,4.7723,4.775,4.7824,4.7843,4.7885,4.7954,4.7982,4.8064,4.8076,4.8171,4.8169,4.8154,4.8155,4.8207,4.8202,4.8368,4.8391,4.8257,4.8258,4.8259,0,4.7409,4.7467,4.754,4.7582,4.7617,4.7683,4.7726,4.7754,4.7798,4.7867,4.791,4.798,4.8037,4.8147,4.8183,4.8247,4.8247,4.8301,4.8256,4.8252,4.825,4.8247,4.8253,4.8309,4.831,4.8311,4.8312,0,4.7522,4.7538,4.7601,4.7672,4.7725,4.7781,4.7835,4.7868,4.7904,4.7953,4.8026,4.8071,4.8158,4.8228,4.8295,4.8325,4.8325,4.8326,4.8342,4.8339,4.8329,4.8337,4.8177,4.8322,4.8321,4.832,4.832,4.832,4.7598,4.7651,4.7712,4.7784,4.7829,4.788,4.7933,4.7969,4.8031,4.8107,4.8118,4.8197,4.8251,4.8342,4.8376,4.8436,4.8422,4.8444,4.845,4.8456,4.8461,4.8319,4.8448,4.8448,4.8447,4.8447,4.8447,0,4.7713,4.7753,4.7819,4.7898,4.7954,4.7953,4.8013,4.806,4.813,4.8182,4.8241,4.8325,4.8393,4.8436,4.8504,4.8544,4.8546,4.8561,4.8559,4.8567,4.8468,4.8449,4.8559,4.8559,4.8559,4.8559,4.8559,4.8559,4.7779,4.7869,4.7892,4.8004,4.8043,4.8123,4.8158,4.8206,4.8249,4.8344,4.8402,4.8431,4.848,4.8552,4.8615,4.8625,4.8651,4.8668,4.8677,4.8585,4.8573,4.8562,4.8544,4.8672,4.8673,4.8771,4.8772,4.8772]}]]